Tracking 18784 objects as of 18-August-2017
HD Live streaming from Space Station
objects crossing your sky now

AAUSAT CUBESAT 2

Track AAUSAT CUBESAT 2 now!
10-day predictions
AAUSAT CUBESAT 2 is classified as:


NORAD ID: 32788
Int'l Code: 2008-021F
Perigee: 585.6 km
Apogee: 600.0 km
Inclination: 97.6 °
Period: 96.4 minutes
Semi major axis: 6963 km
RCS: 0.034 m2 (small)
Launch date: April 28, 2008
Source: Denmark (DEN)
Launch site: SIRHARIKOTA (SRI)
Uplink (MHz):
Downlink (MHz): 437.429
Beacon (MHz): 437.429
Mode: 1200bps FFSK MSK
Call sign:
Status: Active


This is a CubeSat satellite. AAUSAT-II is the creation of a student team at Aalborg University in Denmark. It will downlink scientific telemetry at 437.425 MHz using 1200 or 9600-baud packet.
Your satellite tracking list
Your tracking list is empty





NASA's NSSDC Master Catalog

Two Line Element Set (TLE):
1 32788U 08021F   17229.78864921 +.00000573 +00000-0 +58923-4 0  9991
2 32788 097.5550 263.4402 0010349 286.8959 073.1126 14.93938176504770
Source of the keplerian elements: Caltech